Station FAIO1 - 9063053 - Fairport, OH Image indicating link to RSS feed of recent meteorological observations for station FAIO1


Conditions at FAIO1 as of
(2:30 pm EDT)
1830 GMT on 05/30/2024:
     

Click on the graph icon in the table below to see a time series plot of the last five days of that observation.

5-day plot - Wind Direction Wind Direction (WDIR): NW ( 310 deg true )
5-day plot - Wind Speed Wind Speed (WSPD): 5.1 kts
5-day plot - Wind Gust Wind Gust (GST): 6.0 kts
5-day plot - Atmospheric Pressure Atmospheric Pressure (PRES):30.15 in
5-day plot - Air Temperature Air Temperature (ATMP): 60.8 °F
5-day plot - Water Temperature Water Temperature (WTMP): 64.4 °F
5-day plot - Dew Point Dew Point (DEWP): 44.6 °F
5-day plot - Wind Speed at 10 Meters Wind Speed at 10 meters (WSPD10M): 3.9 kts
5-day plot - Wind Speed at 20 Meters Wind Speed at 20 meters (WSPD20M): 5.8 kts
5-day plot -  Wind Speed, Wind Gust and Atmospheric Pressure Combined plot of Wind Speed, Gust, and Air Pressure
NOS Water Level Observation Network Water Level
Previous observations
TIME
(EDT)
5-day plot - Wind Direction
WDIR
 
5-day plot - Wind Speed
WSPD
kts
5-day plot - Wind Gust
GST
kts
5-day plot - Wave Height
WVHT
ft
5-day plot - Dominant Wave Period
DPD
sec
5-day plot - Average Wave Period
APD
sec
5-day plot - Mean Wave Direction
MWD
 
5-day plot - Atmospheric Pressure
PRES
in
5-day plot - Pressure Tendency
PTDY
in
5-day plot - Air Temperature
ATMP
°F
5-day plot - Water Temperature
WTMP
°F
5-day plot - Dew Point
DEWP
°F
5-day plot - Salinity
SAL
psu
5-day plot - Visibility
VIS
nmi
5-day plot - Tide (above MLLW)
TIDE
ft
2024-05-30 02:24 pm NW 5.1 6.0----30.15- 59.4 64.4 45.0---
2024-05-30 02:18 pmWNW 5.1 7.0----30.15- 60.1 64.6 45.1---
2024-05-30 02:12 pm NW 6.0 8.0----30.15- 59.9 64.6 46.2---
2024-05-30 02:06 pm NW 7.0 8.0----30.15- 60.3 64.2 45.9---
2024-05-30 02:00 pm NW 6.0 7.0----30.15-0.01 60.1 64.2 45.7---
2024-05-30 01:54 pm NW 6.0 7.0----30.15- 59.7 64.4 45.3---
2024-05-30 01:48 pmWNW 5.1 6.0----30.15-- 64.4----
2024-05-30 01:42 pm NW 5.1 7.0----30.15-- 64.2----
2024-05-30 01:36 pm NW 5.1 7.0----30.15-- 64.4----
2024-05-30 01:30 pm NW 4.1 7.0----30.15- 59.0 64.4 45.1---
2024-05-30 01:24 pm NW 6.0 7.0----30.16- 59.2 64.2 45.3---
2024-05-30 01:18 pm NW 5.1 6.0----30.16- 58.6 64.2 46.9---
2024-05-30 01:12 pmNNW 6.0 8.0----30.16- 59.0 64.2 44.8---
2024-05-30 01:06 pm NW 6.0 7.0----30.16- 58.6 64.0 44.6---
2024-05-30 01:00 pmNNW 5.1 7.0----30.16+0.00 59.4 64.2 47.1---
2024-05-30 12:54 pmNNW 6.0 8.0----30.16- 58.8 64.0 45.0---
2024-05-30 12:48 pm NW 6.0 8.0----30.16- 58.5 64.2 46.9---
2024-05-30 12:42 pmNNW 7.0 8.9----30.16- 57.9 64.2 46.0---
2024-05-30 12:36 pm N 6.0 8.9----30.16- 57.4 64.2 46.4---
2024-05-30 12:30 pmNNW 7.0 8.9----30.16- 57.7 64.2 46.9---
2024-05-30 12:24 pmNNW 8.0 9.9----30.16- 57.9 64.4 47.3---
2024-05-30 12:18 pm N 8.0 8.9----30.16- 57.7 63.9 47.5---
2024-05-30 12:06 pmNNW 8.9 11.1----30.16- 57.9 63.9 49.1---
2024-05-30 12:00 pm N 8.0 11.1----30.16+0.00 57.7 63.9 47.8---
2024-05-30 11:54 am N 8.0 11.1----30.16- 57.7 63.9 47.1---
2024-05-30 11:48 am N 8.9 11.1----30.16-- 63.9----
2024-05-30 11:42 am N 8.9 12.0----30.16-- 63.9----
2024-05-30 11:36 am N 8.9 12.0----30.16-- 63.9----
2024-05-30 11:30 am N 8.9 12.0----30.16- 57.0 63.9 48.2---
2024-05-30 11:24 am N 9.9 11.1----30.16- 57.0 63.9 47.3---
2024-05-30 11:18 am N 8.9 11.1----30.16- 57.0 63.9 48.7---
2024-05-30 11:12 am N 8.9 11.1----30.16- 57.2 63.9 49.1---
2024-05-30 11:06 am N 9.9 12.0----30.16- 56.8 63.7 49.1---
2024-05-30 11:00 am N 9.9 12.0----30.16+0.02 56.8 63.7 49.1---
2024-05-30 10:54 am N 11.1 12.0----30.16- 56.7 63.9 49.6---
2024-05-30 10:48 am N 11.1 13.0----30.16- 56.8 63.9 48.2---
2024-05-30 10:42 am N 9.9 13.0----30.16- 57.0 63.9 48.6---
2024-05-30 10:36 am N 11.1 13.0----30.16- 57.0 63.9 48.2---
2024-05-30 10:30 am N 9.9 12.0----30.16- 56.7 63.9 48.0---
2024-05-30 10:24 am N 11.1 13.0----30.16- 57.0 63.9 49.1---
2024-05-30 10:18 am N 12.0 14.0----30.16- 57.2 63.7 48.7---
2024-05-30 10:12 am N 12.0 14.0----30.16- 57.2 63.7 48.7---
2024-05-30 10:06 am N 11.1 14.0----30.16- 57.4 63.7 48.7---
2024-05-30 10:00 am N 11.1 14.0----30.16+0.04 57.0 63.9 48.0---
2024-05-30 09:54 am N 13.0 14.0----30.16- 57.2 63.9 47.8---
2024-05-30 09:48 am N 12.0 15.0----30.16- 57.2 63.9 49.1---
2024-05-30 09:42 am N 12.0 15.0----30.16- 57.2 63.7 47.5---
2024-05-30 09:36 am N 12.0 14.0----30.16- 57.2 63.7 48.0---
2024-05-30 09:30 am N 12.0 15.0----30.16- 56.8 63.7 47.1---
2024-05-30 09:24 am N 13.0 15.0----30.16- 57.2 63.7 47.7---
2024-05-30 09:18 am N 13.0 14.0----30.16- 57.2 63.7 48.4---
2024-05-30 09:12 am N 12.0 15.0----30.16- 57.0 63.7 48.9---
2024-05-30 09:06 am N 13.0 15.9----30.16- 57.2 63.7 48.4---
2024-05-30 09:00 am N 14.0 15.9----30.16- 56.7 63.7 47.5---
2024-05-30 08:54 am N 15.0 17.1----30.15- 57.0 63.7 48.0---
2024-05-30 08:48 am N 14.0 17.1----30.15- 56.7 63.7 47.7---
2024-05-30 08:42 am N 14.0 17.1----30.15- 56.8 63.7 47.3---
2024-05-30 08:36 am N 15.0 18.1----30.15- 56.8 63.7 48.2---
2024-05-30 08:30 am N 15.9 18.1----30.14- 56.7 63.7 48.0---
2024-05-30 08:24 am N 17.1 18.1----30.14- 56.7 63.7 48.0---
2024-05-30 08:18 am N 15.9 18.1----30.14- 56.7 63.7 48.4---
2024-05-30 08:12 am N 15.9 18.1----30.14- 56.5 63.7 48.4---
2024-05-30 08:06 am N 17.1 20.0----30.14- 56.7 63.7 48.0---
2024-05-30 08:00 am N 18.1 20.0----30.14- 56.7 63.7 48.2---
2024-05-30 07:54 am N 15.9 19.0----30.14- 56.5 63.7 47.7---
2024-05-30 07:48 am N 18.1 20.0----30.14-- 63.7----
2024-05-30 07:42 am N 17.1 20.0----30.14-- 63.7----
2024-05-30 07:36 am N 17.1 20.0----30.13-- 63.7----
2024-05-30 07:30 am N 18.1 20.0----30.13- 55.9 63.7 46.9---
2024-05-30 07:24 am N 18.1 21.0----30.13- 56.3 63.7 48.2---
2024-05-30 07:18 am N 18.1 21.0----30.13- 56.1 63.7 48.4---
2024-05-30 07:12 am N 18.1 21.0----30.13- 55.8 63.7 46.9---
2024-05-30 07:06 am N 19.0 21.0----30.13- 55.8 63.7 47.8---
2024-05-30 07:00 am N 18.1 20.0----30.12- 55.4 63.7 48.0---
2024-05-30 06:54 amNNW 18.1 20.0----30.12- 55.8 63.7 48.2---
2024-05-30 06:48 am N 18.1 21.0----30.12- 55.8 63.7 47.5---
2024-05-30 06:42 am N 19.0 22.0----30.12- 55.6 63.7 48.0---
2024-05-30 06:36 amNNW 19.0 21.0----30.12- 55.6 63.7 47.1---
2024-05-30 06:30 am N 19.0 21.0----30.12- 55.4 63.7 46.2---
2024-05-30 06:24 am N 18.1 20.0----30.12- 55.4 63.7 46.4---
2024-05-30 06:18 am N 17.1 20.0----30.12- 55.4 63.7 46.8---
2024-05-30 06:12 am N 17.1 19.0----30.12- 55.4 63.7 46.8---
2024-05-30 06:06 am N 15.9 18.1----30.12- 55.4 63.7 46.4---
2024-05-30 06:00 am N 17.1 19.0----30.12+0.03 55.4 63.7 45.9---
2024-05-30 05:54 am N 17.1 19.0----30.12- 55.2 63.7 45.3---
2024-05-30 05:48 am N 17.1 18.1----30.12- 55.2 63.9 45.1---
2024-05-30 05:42 am N 18.1 20.0----30.11- 55.2 63.9 45.1---
2024-05-30 05:36 am N 15.9 19.0----30.11- 55.2 63.9 45.5---
2024-05-30 05:30 am N 15.9 18.1----30.11- 55.0 63.9 45.1---
2024-05-30 05:24 am N 15.0 17.1----30.11- 54.9 63.7 44.1---
2024-05-30 05:18 am N 15.0 17.1----30.11- 55.0 63.7 46.0---
2024-05-30 05:12 am N 14.0 17.1----30.11- 55.0 63.9 45.7---
2024-05-30 05:06 am N 15.0 18.1----30.11- 54.9 63.9 45.0---
2024-05-30 05:00 am N 15.9 17.1----30.11+0.02 54.7 63.9 44.4---
2024-05-30 04:54 am N 14.0 17.1----30.11- 54.7 63.9 44.4---
2024-05-30 04:48 am N 14.0 17.1----30.11-- 63.9----
2024-05-30 04:42 am N 15.9 18.1----30.11-- 63.9----
2024-05-30 04:36 am N 14.0 17.1----30.11-- 63.9----
2024-05-30 04:30 am N 14.0 17.1----30.10- 54.7 63.9 45.5---
2024-05-30 04:24 am N 15.0 17.1----30.10- 54.7 63.9 45.3---
2024-05-30 04:18 am N 15.0 17.1----30.10- 54.9 63.9 44.2---
2024-05-30 04:12 am N 13.0 15.0----30.10- 54.7 63.9 45.1---
2024-05-30 04:06 am N 13.0 15.9----30.10- 54.0 63.9 46.0---
2024-05-30 04:00 am N 12.0 14.0----30.10+0.02 54.1 63.9 46.9---
2024-05-30 03:54 am N 12.0 14.0----30.10- 54.1 63.9 46.9---
2024-05-30 03:48 amNNW 12.0 15.0----30.10-- 64.0----
2024-05-30 03:42 amNNW 13.0 15.0----30.09-- 64.0----
2024-05-30 03:36 am N 13.0 15.0----30.09-- 64.0----
2024-05-30 03:30 am N 12.0 15.0----30.09- 54.5 64.0 47.3---
2024-05-30 03:24 am N 11.1 15.9----30.09- 54.7 64.0 47.1---
2024-05-30 03:18 am N 13.0 15.0----30.09- 54.9 64.0 46.9---
2024-05-30 03:12 am N 13.0 15.9----30.09- 55.0 64.0 47.7---
2024-05-30 03:06 am N 12.0 15.0----30.09- 54.9 64.0 47.7---
2024-05-30 03:00 amNNW 12.0 15.0----30.09+0.03 55.0 64.0 47.3---
2024-05-30 02:54 am N 13.0 15.0----30.09- 54.7 64.0 47.5---
2024-05-30 02:48 am N 12.0 14.0----30.09- 54.7 64.0 47.3---
2024-05-30 02:42 am N 9.9 14.0----30.09- 55.2 64.0 47.3---
2024-05-30 02:36 am N 12.0 13.0----30.09- 55.2 64.0 47.3---
2024-05-30 02:30 am N 12.0 13.0----30.09- 54.9 64.0 47.7---
2024-05-30 02:24 am N 11.1 13.0----30.09- 54.3 64.0 47.8---
2024-05-30 02:18 am N 11.1 14.0----30.09- 54.7 64.0 47.5---
2024-05-30 02:12 am N 9.9 12.0----30.09- 54.9 64.0 47.7---
2024-05-30 02:06 am N 11.1 14.0----30.09- 54.3 64.0 47.7---
2024-05-30 02:00 am N 9.9 13.0----30.09+0.03 54.7 64.0 47.8---
2024-05-30 01:54 amNNW 9.9 12.0----30.09- 54.5 64.0 47.7---
2024-05-30 01:48 am N 8.9 12.0----30.08-- 64.0----
2024-05-30 01:42 am N 9.9 13.0----30.08-- 64.0----
2024-05-30 01:36 am N 9.9 13.0----30.08-- 64.0----
2024-05-30 01:30 am N 11.1 13.0----30.08- 54.5 64.2 48.2---
2024-05-30 01:24 am N 12.0 14.0----30.08- 54.7 64.2 48.0---
2024-05-30 01:18 am N 12.0 13.0----30.08- 54.9 64.0 48.6---
2024-05-30 01:12 amNNW 9.9 13.0----30.08- 54.9 64.2 48.2---
2024-05-30 01:06 amNNW 9.9 13.0----30.08- 54.7 64.2 48.4---
2024-05-30 01:00 am N 9.9 13.0----30.08+0.03 54.7 64.2 48.2---
2024-05-30 12:54 am N 6.0 8.9----30.08- 54.9 64.2 48.2---
2024-05-30 12:48 am N 8.0 9.9----30.08-- 64.2----
2024-05-30 12:42 am N 5.1 8.0----30.08-- 64.2----
2024-05-30 12:36 am N 7.0 8.9----30.08-- 64.2----
2024-05-30 12:30 amNNW 7.0 8.9----30.07- 54.9 64.2 47.8---
2024-05-30 12:24 am N 8.9 11.1----30.07- 54.1 64.2 47.1---
2024-05-30 12:18 am N 9.9 12.0----30.07- 54.3 64.2 47.5---
2024-05-30 12:12 am N 9.9 14.0----30.07- 54.1 64.2 46.9---
2024-05-30 12:06 am N 14.0 15.9----30.07- 54.1 64.2 47.1---
2024-05-30 12:00 am N 14.0 15.9----30.06+0.03 54.5 64.2 46.4---
2024-05-29 11:54 pmNNW 13.0 15.0----30.06- 54.9 64.2 47.1---
2024-05-29 11:48 pmNNW 11.1 12.0----30.06- 55.0 64.2 46.2---
2024-05-29 11:42 pmNNW 8.0 12.0----30.06- 55.4 64.4 45.7---
2024-05-29 11:36 pm N 11.1 15.9----30.06- 55.0 64.4 45.7---
2024-05-29 11:30 pm N 14.0 15.9----30.06- 55.2 64.4 44.6---
2024-05-29 11:24 pmNNW 15.0 18.1----30.05- 55.2 64.4 44.2---
2024-05-29 11:18 pmNNW 12.0 13.0----30.05- 55.4 64.4 43.7---
2024-05-29 11:12 pmNNW 11.1 12.0----30.05- 55.4 64.4 43.0---
2024-05-29 11:06 pmNNW 8.9 11.1----30.05- 55.6 64.4 43.3---
2024-05-29 11:00 pmNNW 8.9 13.0----30.06+0.02 55.4 64.4 44.1---
2024-05-29 10:54 pm N 12.0 13.0----30.06- 55.4 64.4 44.4---
2024-05-29 10:48 pmNNW 9.9 12.0----30.06- 55.6 64.4 43.9---
2024-05-29 10:42 pm N 8.0 11.1----30.05- 55.8 64.4 44.8---
2024-05-29 10:36 pmNNW 6.0 8.9----30.05- 55.8 64.4 44.1---
2024-05-29 10:30 pm NW 6.0 12.0----30.06- 55.9 64.4 43.2---
2024-05-29 10:24 pmNNW 9.9 18.1----30.06- 56.1 64.4 43.7---
2024-05-29 10:18 pmNNW 13.0 17.1----30.06- 56.1 64.4 43.3---
2024-05-29 10:12 pmNNW 17.1 20.0----30.05- 56.3 64.4 43.5---
2024-05-29 10:06 pmNNW 18.1 20.0----30.05- 56.5 64.4 44.6---
2024-05-29 10:00 pmNNW 17.1 20.0----30.05+0.03 57.0 64.4 44.8---
2024-05-29 09:54 pmNNW 18.1 21.0----30.04- 56.8 64.4 43.7---
2024-05-29 09:48 pmNNW 18.1 21.0----30.04- 57.0 64.6 45.5---
2024-05-29 09:42 pmNNW 19.0 22.0----30.04- 57.2 64.6 44.2---
2024-05-29 09:36 pmNNW 19.0 21.0----30.04- 57.4 64.6 45.5---
2024-05-29 09:30 pmNNW 21.0 22.9----30.04- 57.4 64.6 43.9---
2024-05-29 09:24 pmNNW 20.0 22.0----30.03- 57.4 64.6 45.3---
2024-05-29 09:18 pmNNW 19.0 22.9----30.03- 57.6 64.6 45.1---
2024-05-29 09:12 pmNNW 20.0 25.1----30.04- 57.9 64.8 46.8---
2024-05-29 09:06 pmNNW 21.0 22.9----30.03- 57.7 64.8 45.5---
2024-05-29 09:00 pmNNW 20.0 22.9----30.03+0.03 57.7 64.6 46.2---
2024-05-29 08:54 pmNNW 20.0 22.9----30.03- 57.9 64.8 46.9---
2024-05-29 08:48 pmNNW 21.0 22.9----30.03- 58.3 64.8 44.2---
2024-05-29 08:42 pmNNW 22.0 22.9----30.03- 58.3 64.8 46.0---
2024-05-29 08:36 pmNNW 21.0 24.1----30.03- 58.3 64.8 46.9---
2024-05-29 08:30 pmNNW 21.0 24.1----30.03- 58.5 64.8 49.1---
2024-05-29 08:24 pmNNW 21.0 22.0----30.03- 58.6 64.8 49.3---
2024-05-29 08:18 pmNNW 19.0 22.0----30.03- 58.8 64.8 49.3---
2024-05-29 08:12 pmNNW 18.1 22.9----30.03- 58.8 64.8 49.3---
2024-05-29 08:06 pmNNW 20.0 22.0----30.03- 59.2 64.8 49.1---
2024-05-29 08:00 pmNNW 19.0 24.1----30.03+0.03 59.9 64.8 48.2---
2024-05-29 07:54 pmNNW 21.0 24.1----30.03- 60.1 64.8 45.9---
2024-05-29 07:48 pmNNW 21.0 24.1----30.03-- 64.8----
2024-05-29 07:42 pmNNW 21.0 24.1----30.03-- 64.9----
2024-05-29 07:36 pmNNW 19.0 22.9----30.03-- 64.9----
2024-05-29 07:30 pmNNW 21.0 22.9----30.03- 60.6 64.9 46.4---
2024-05-29 07:24 pmNNW 19.0 22.0----30.03- 60.4 64.9 48.9---
2024-05-29 07:18 pmNNW 20.0 22.0----30.02- 60.6 64.9 48.9---
2024-05-29 07:12 pmNNW 19.0 22.9----30.02- 60.8 64.9 46.9---
2024-05-29 07:06 pmNNW 20.0 22.9----30.02- 61.2 64.9 47.5---
2024-05-29 07:00 pmNNW 18.1 21.0----30.02+0.03 60.8 64.8 49.6---
2024-05-29 06:54 pm N 18.1 19.0----30.02- 60.4 64.8 52.5---
2024-05-29 06:48 pm NW 8.9 9.9----30.02- 61.0 64.8 55.4---
2024-05-29 06:42 pmNNW 8.9 11.1----30.01- 61.3 64.9 55.8---
2024-05-29 06:36 pmNNW 8.9 9.9----30.01- 62.1 64.8 55.9---
2024-05-29 06:30 pm NW 8.9 14.0----30.01- 61.9 64.8 56.3---
2024-05-29 06:24 pmNNW 12.0 14.0----30.01- 61.7 64.8 55.9---
2024-05-29 06:18 pmNNW 12.0 14.0----30.01- 61.9 64.6 55.6---
2024-05-29 06:12 pmNNW 11.1 13.0----30.01- 61.7 64.9 57.2---
2024-05-29 06:06 pm NW 8.9 9.9----30.01- 61.2 64.8 56.5---
2024-05-29 06:00 pmNNW 7.0 8.9----30.01+0.02 61.5 64.8 56.5---
2024-05-29 05:54 pmNNW 7.0 9.9----30.01- 60.4 64.8 55.9---
2024-05-29 05:48 pmNNW 8.0 9.9----30.01- 59.5 64.8 55.0---
2024-05-29 05:42 pmNNW 8.0 12.0----30.01- 59.5 64.8 55.4---
2024-05-29 05:36 pmNNW 12.0 13.0----30.01- 59.7 64.9 55.9---
2024-05-29 05:30 pmNNW 8.9 11.1----30.00- 59.5 64.8 57.0---
2024-05-29 05:24 pmNNW 11.1 13.0----30.00- 59.5 64.8 57.4---
2024-05-29 05:18 pmNNW 11.1 13.0----30.00- 59.4 64.8 57.0---
2024-05-29 05:12 pmNNW 12.0 13.0----30.00- 59.2 64.9 56.7---
2024-05-29 05:06 pmNNW 8.9 13.0----30.00- 59.4 64.8 57.9---
2024-05-29 05:00 pmNNW 13.0 15.0----30.00+0.03 59.5 64.8 56.5---
2024-05-29 04:54 pmNNW 15.0 20.0----30.00- 59.9 64.8 56.3---
2024-05-29 04:48 pmNNW 19.0 21.0----30.00-- 64.6----
2024-05-29 04:42 pmNNW 14.0 17.1----30.00-- 64.6----
2024-05-29 04:36 pmNNW 13.0 14.0----30.00-- 64.6----
2024-05-29 04:30 pm NW 12.0 13.0----30.00- 62.6 64.6 58.6---
2024-05-29 04:24 pm NW 13.0 14.0----30.00- 61.5 64.4 56.7---
2024-05-29 04:18 pmNNW 14.0 15.9----30.00- 62.1 64.4 57.9---
2024-05-29 04:12 pmNNW 14.0 15.0----30.00- 61.7 64.8 57.9---
2024-05-29 04:06 pmNNW 11.1 12.0----29.99- 61.2 64.2 57.7---
2024-05-29 04:00 pmNNW 12.0 13.0----29.99+0.02 61.0 64.4 57.7---
2024-05-29 03:54 pm NW 12.0 14.0----29.99- 61.5 64.6 58.5---
2024-05-29 03:48 pm NW 12.0 17.1----29.99- 61.3 64.2 58.1---
2024-05-29 03:42 pm NW 15.9 18.1----29.99- 62.1 64.0 58.1---
2024-05-29 03:36 pm NW 9.9 13.0----29.99- 62.6 63.9 59.2---
2024-05-29 03:30 pm NW 12.0 14.0----29.99- 62.6 63.9 58.6---
2024-05-29 03:24 pm NW 12.0 14.0----29.99- 62.8 63.9 58.6---
2024-05-29 03:18 pm NW 13.0 15.0----29.99- 62.8 63.7 58.8---
2024-05-29 03:12 pm NW 12.0 13.0----29.99- 63.1 63.9 59.0---
2024-05-29 03:06 pm NW 11.1 12.0----29.98- 63.7 63.9 59.7---
2024-05-29 03:00 pm NW 11.1 12.0----29.99- 61.7 63.9 57.9---
2024-05-29 02:54 pm NW 8.9 11.1----29.99- 61.9 63.9 57.9---